| time (UTC) | temp F | wind direction | speed MPH | gust MPH | rain 1hr in | rain 24hr in | rain mn in | humidity % | barometer mb |
| 20260510163905 | 63 | 2 | 5.0 | 12.0 | 0.00 | 0.20 | 0.00 | 73 | 1012.5 |
| 20260510162905 | 64 | 349 | 5.0 | 12.0 | 0.00 | 0.20 | 0.00 | 69 | 1012.6 |
| 20260510162406 | 65 | 302 | 3.0 | 8.0 | 0.00 | 0.20 | 0.00 | 71 | 1012.4 |
| 20260510160406 | 64 | 307 | 2.0 | 3.0 | 0.00 | 0.20 | 0.00 | 71 | 1012.3 |
| 20260510145905 | 62 | 278 | 3.0 | 7.0 | 0.00 | 0.23 | 0.00 | 78 | 1012.2 |
| 20260510144904 | 62 | 279 | 3.0 | 6.0 | 0.00 | 0.24 | 0.00 | 79 | 1012.1 |
| 20260510123905 | 56 | 239 | 2.0 | 3.0 | 0.00 | 0.27 | 0.00 | 87 | 1011.8 |
| 20260510122906 | 56 | 237 | 2.0 | 3.0 | 0.00 | 0.27 | 0.00 | 88 | 1011.6 |
| 20260510110404 | 53 | 173 | 0.0 | 3.0 | 0.00 | 0.30 | 0.00 | 92 | 1011.7 |
| 20260510105906 | 53 | 178 | 1.0 | 3.0 | 0.00 | 0.30 | 0.00 | 92 | 1011.7 |
| 20260510105404 | 53 | 195 | 1.0 | 3.0 | 0.00 | 0.30 | 0.00 | 92 | 1011.7 |
| 20260510104905 | 53 | 160 | 2.0 | 5.0 | 0.00 | 0.30 | 0.00 | 92 | 1011.6 |
| 20260510104405 | 53 | 193 | 2.0 | 6.0 | 0.00 | 0.31 | 0.00 | 92 | 1011.5 |
| 20260510103405 | 52 | 211 | 0.0 | 2.0 | 0.00 | 0.32 | 0.00 | 92 | 1011.3 |
| 20260510102904 | 52 | 213 | 1.0 | 3.0 | 0.00 | 0.34 | 0.00 | 92 | 1011.2 |
| 20260510101906 | 52 | 213 | 1.0 | 2.0 | 0.00 | 0.36 | 0.00 | 92 | 1011.0 |
| 20260510101405 | 52 | 213 | 0.0 | 2.0 | 0.00 | 0.36 | 0.00 | 92 | 1011.1 |
| 20260510100905 | 52 | 213 | 2.0 | 3.0 | 0.00 | 0.37 | 0.00 | 92 | 1010.9 |
| 20260510095904 | 52 | 193 | 1.0 | 3.0 | 0.00 | 0.37 | 0.00 | 92 | 1010.6 |
| 20260510095406 | 52 | 193 | 1.0 | 3.0 | 0.00 | 0.38 | 0.00 | 92 | 1010.7 |
| 20260510094904 | 52 | 194 | 2.0 | 5.0 | 0.00 | 0.38 | 0.00 | 92 | 1010.6 |
| 20260510094404 | 51 | 207 | 2.0 | 3.0 | 0.00 | 0.38 | 0.00 | 92 | 1010.5 |
| 20260510093404 | 51 | 195 | 1.0 | 3.0 | 0.00 | 0.38 | 0.00 | 92 | 1010.6 |
| 20260510092906 | 52 | 153 | 1.0 | 2.0 | 0.00 | 0.39 | 0.00 | 92 | 1010.6 |
| 20260510091905 | 52 | 153 | 1.0 | 2.0 | 0.00 | 0.40 | 0.00 | 91 | 1010.4 |
| 20260510091405 | 52 | 153 | 0.0 | 1.0 | 0.00 | 0.40 | 0.00 | 91 | 1010.5 |
| 20260510090905 | 52 | 153 | 1.0 | 2.0 | 0.00 | 0.41 | 0.00 | 91 | 1010.3 |
| 20260510090405 | 52 | 153 | 1.0 | 2.0 | 0.00 | 0.41 | 0.00 | 91 | 1010.1 |
| 20260510085904 | 52 | 194 | 1.0 | 3.0 | 0.00 | 0.41 | 0.00 | 91 | 1010.3 |
| 20260510085404 | 52 | 191 | 0.0 | 1.0 | 0.00 | 0.42 | 0.00 | 91 | 1010.0 |
| 20260510084906 | 52 | 191 | 1.0 | 3.0 | 0.00 | 0.42 | 0.00 | 91 | 1010.0 |
| 20260510084405 | 52 | 178 | 0.0 | 2.0 | 0.00 | 0.43 | 0.00 | 91 | 1010.0 |
| 20260510083904 | 52 | 178 | 1.0 | 2.0 | 0.00 | 0.44 | 0.00 | 91 | 1010.0 |
| 20260510083406 | 52 | 153 | 0.0 | 1.0 | 0.00 | 0.45 | 0.00 | 91 | 1010.0 |
| 20260510082905 | 52 | 153 | 1.0 | 2.0 | 0.00 | 0.46 | 0.00 | 91 | 1010.1 |
| 20260510073904 | 52 | 190 | 3.0 | 7.0 | 0.00 | 0.46 | 0.00 | 91 | 1010.7 |
| 20260510073404 | 52 | 192 | 1.0 | 3.0 | 0.00 | 0.46 | 0.00 | 91 | 1011.0 |
| 20260510072904 | 52 | 217 | 2.0 | 5.0 | 0.00 | 0.46 | 0.00 | 91 | 1011.0 |
| 20260510072405 | 52 | 237 | 2.0 | 3.0 | 0.00 | 0.46 | 0.00 | 91 | 1011.2 |
| 20260510071904 | 52 | 238 | 2.0 | 3.0 | 0.00 | 0.46 | 0.00 | 91 | 1011.1 |
| 20260510062905 | 52 | 242 | 2.0 | 5.0 | 0.00 | 0.46 | 0.00 | 92 | 1010.7 |
| 20260510062405 | 52 | 200 | 1.0 | 3.0 | 0.00 | 0.46 | 0.00 | 92 | 1010.6 |
| 20260510041923 | 53 | 201 | 1.0 | 3.0 | 0.00 | 0.46 | 0.00 | 88 | 1010.4 |
| 20260510022423 | 53 | 179 | 2.0 | 3.0 | 0.00 | 0.46 | 0.46 | 89 | 1010.3 |
| 20260510021914 | 53 | 182 | 1.0 | 3.0 | 0.00 | 0.46 | 0.46 | 89 | 1010.5 |
| 20260510021424 | 53 | 209 | 2.0 | 3.0 | 0.00 | 0.46 | 0.46 | 89 | 1010.6 |
| 20260510020935 | 53 | 202 | 1.0 | 3.0 | 0.00 | 0.46 | 0.46 | 89 | 1010.6 |
| 20260510020404 | 53 | 209 | 2.0 | 7.0 | 0.00 | 0.46 | 0.46 | 89 | 1010.7 |
| 20260510015920 | 53 | 169 | 1.0 | 5.0 | 0.00 | 0.46 | 0.46 | 89 | 1010.5 |
| 20260510014404 | 52 | 246 | 1.0 | 3.0 | 0.00 | 0.46 | 0.46 | 90 | 1010.5 |
| 20260510013405 | 52 | 193 | 0.0 | 2.0 | 0.00 | 0.46 | 0.46 | 89 | 1010.3 |
| 20260510012904 | 52 | 165 | 1.0 | 3.0 | 0.00 | 0.46 | 0.46 | 89 | 1010.5 |
| 20260510010406 | 53 | 162 | 1.0 | 3.0 | 0.00 | 0.46 | 0.46 | 90 | 1010.3 |
| 20260510005905 | 52 | 206 | 2.0 | 5.0 | 0.00 | 0.46 | 0.46 | 90 | 1010.5 |
| 20260509231917 | 54 | 181 | 2.0 | 6.0 | 0.00 | 0.46 | 0.46 | 88 | 1009.0 |
| 20260509225907 | 55 | 172 | 1.0 | 3.0 | 0.00 | 0.46 | 0.46 | 89 | 1009.2 |
| 20260509224909 | 55 | 159 | 2.0 | 3.0 | 0.00 | 0.46 | 0.46 | 89 | 1009.2 |
| 20260509224406 | 55 | 214 | 2.0 | 5.0 | 0.00 | 0.46 | 0.46 | 89 | 1009.3 |
| 20260509223410 | 54 | 227 | 1.0 | 5.0 | 0.00 | 0.46 | 0.46 | 89 | 1009.4 |
| 20260509222905 | 54 | 187 | 2.0 | 3.0 | 0.00 | 0.46 | 0.46 | 89 | 1009.4 |
| 20260509212404 | 54 | 303 | 1.0 | 6.0 | 0.00 | 0.46 | 0.46 | 91 | 1009.6 |
| 20260509211904 | 54 | 214 | 3.0 | 6.0 | 0.00 | 0.46 | 0.46 | 92 | 1009.7 |
| 20260509211405 | 54 | 252 | 3.0 | 8.0 | 0.00 | 0.46 | 0.46 | 92 | 1009.7 |
| 20260509210904 | 54 | 248 | 1.0 | 6.0 | 0.00 | 0.46 | 0.46 | 92 | 1009.7 |
| 20260509205426 | 53 | 218 | 2.0 | 6.0 | 0.01 | 0.46 | 0.46 | 92 | 1009.9 |
| 20260509204908 | 53 | 232 | 2.0 | 3.0 | 0.01 | 0.46 | 0.46 | 92 | 1010.0 |
| 20260509204404 | 53 | 236 | 3.0 | 7.0 | 0.01 | 0.46 | 0.46 | 92 | 1010.0 |
| 20260509203904 | 53 | 226 | 2.0 | 8.0 | 0.01 | 0.46 | 0.46 | 93 | 1010.0 |
| 20260509202904 | 54 | 231 | 2.0 | 7.0 | 0.02 | 0.46 | 0.46 | 93 | 1010.2 |
| 20260509201405 | 53 | 236 | 3.0 | 9.0 | 0.04 | 0.46 | 0.46 | 93 | 1010.3 |
| 20260509200905 | 53 | 247 | 3.0 | 8.0 | 0.05 | 0.46 | 0.46 | 93 | 1010.4 |
| 20260509200406 | 53 | 211 | 3.0 | 5.0 | 0.05 | 0.45 | 0.45 | 93 | 1010.4 |
| 20260509195904 | 53 | 229 | 2.0 | 3.0 | 0.06 | 0.45 | 0.45 | 93 | 1010.5 |
| 20260509194406 | 53 | 233 | 3.0 | 7.0 | 0.08 | 0.45 | 0.45 | 93 | 1010.8 |
| 20260509193905 | 53 | 242 | 2.0 | 5.0 | 0.09 | 0.45 | 0.45 | 93 | 1010.9 |
| 20260509192906 | 53 | 211 | 2.0 | 3.0 | 0.09 | 0.44 | 0.44 | 93 | 1010.8 |
| 20260509192404 | 53 | 227 | 2.0 | 5.0 | 0.10 | 0.44 | 0.44 | 93 | 1010.9 |
| 20260509191904 | 53 | 242 | 1.0 | 3.0 | 0.10 | 0.43 | 0.43 | 93 | 1011.0 |
| 20260509191404 | 53 | 243 | 2.0 | 3.0 | 0.09 | 0.42 | 0.42 | 93 | 1010.9 |
| 20260509190904 | 53 | 166 | 0.0 | 1.0 | 0.09 | 0.41 | 0.41 | 93 | 1011.0 |
| 20260509190404 | 53 | 166 | 0.0 | 3.0 | 0.08 | 0.40 | 0.40 | 93 | 1010.9 |
| 20260509185904 | 52 | 156 | 2.0 | 5.0 | 0.07 | 0.39 | 0.39 | 93 | 1011.0 |
| 20260509185404 | 52 | 131 | 1.0 | 3.0 | 0.06 | 0.38 | 0.38 | 93 | 1010.9 |
| 20260509183904 | 52 | 128 | 1.0 | 2.0 | 0.06 | 0.36 | 0.36 | 93 | 1011.1 |
| 20260509183404 | 52 | 125 | 0.0 | 2.0 | 0.05 | 0.35 | 0.35 | 93 | 1011.0 |
| 20260509182904 | 52 | 126 | 1.0 | 2.0 | 0.05 | 0.35 | 0.35 | 93 | 1011.0 |
| 20260509182405 | 52 | 233 | 1.0 | 2.0 | 0.05 | 0.34 | 0.34 | 93 | 1011.1 |
| 20260509181904 | 52 | 234 | 1.0 | 3.0 | 0.04 | 0.33 | 0.33 | 93 | 1010.9 |
| 20260509181404 | 52 | 245 | 1.0 | 3.0 | 0.04 | 0.33 | 0.33 | 93 | 1010.9 |
| 20260509180905 | 51 | 76 | 1.0 | 3.0 | 0.04 | 0.32 | 0.32 | 93 | 1010.9 |
| 20260509175904 | 51 | 250 | 2.0 | 3.0 | 0.04 | 0.32 | 0.32 | 93 | 1010.9 |
| 20260509175404 | 51 | 17 | 1.0 | 3.0 | 0.05 | 0.32 | 0.32 | 93 | 1010.9 |
| 20260509174905 | 51 | 99 | 2.0 | 3.0 | 0.05 | 0.32 | 0.32 | 93 | 1011.0 |
| 20260509174404 | 51 | 169 | 1.0 | 3.0 | 0.04 | 0.31 | 0.31 | 93 | 1011.1 |
| 20260509173905 | 51 | 225 | 1.0 | 3.0 | 0.03 | 0.30 | 0.30 | 93 | 1011.1 |
| 20260509173405 | 51 | 229 | 1.0 | 3.0 | 0.03 | 0.30 | 0.30 | 93 | 1011.2 |
| 20260509172404 | 50 | 86 | 1.0 | 3.0 | 0.03 | 0.29 | 0.29 | 93 | 1011.4 |
| 20260509171905 | 50 | 86 | 1.0 | 3.0 | 0.03 | 0.29 | 0.29 | 92 | 1011.5 |
| 20260509171404 | 50 | 162 | 1.0 | 3.0 | 0.03 | 0.29 | 0.29 | 92 | 1011.6 |
| 20260509170904 | 50 | 219 | 1.0 | 3.0 | 0.02 | 0.28 | 0.28 | 93 | 1011.6 |
| 20260509170404 | 51 | 77 | 2.0 | 3.0 | 0.02 | 0.28 | 0.28 | 93 | 1011.6 |
| 20260509165904 | 51 | 171 | 1.0 | 2.0 | 0.02 | 0.28 | 0.28 | 93 | 1011.7 |
| 20260509165404 | 51 | 162 | 2.0 | 3.0 | 0.01 | 0.27 | 0.27 | 93 | 1011.7 |
| 20260509164905 | 51 | 199 | 0.0 | 2.0 | 0.01 | 0.27 | 0.27 | 93 | 1011.8 |
| 20260509164404 | 51 | 175 | 1.0 | 3.0 | 0.02 | 0.27 | 0.27 | 93 | 1011.9 |